Isachsen, Nunavut

10:15 PM MDT on August 18, 2017 (GMT -0600)
Isachsen

Weather History for CWIC - August, 2013

Change the Weather History Date:

Friday, August 2, 2013

  Actual Average Record
Temperature  
Mean Temperature 34 °F -  
Max Temperature 36 °F - - ()
Min Temperature 31 °F - - ()
Degree Days  
Heating Degree Days 32    
Moisture  
Dew Point 32 °F    
Average Humidity 91    
Maximum Humidity 99    
Minimum Humidity 82    
Precipitation  
Precipitation 0.01 in - - ()
Sea Level Pressure  
Sea Level Pressure 30.02 in    
Wind  
Wind Speed 8 mph ()    
Max Wind Speed 14 mph    
Max Gust Speed -    
T = Trace of Precipitation, MM = Missing Value Source: Averaged Metar Reports

Daily Weather History Graph

Daily Weather History Graph

Search for Another Location

Airport or City:

Trip Planner

Search our weather history database for the weather conditions in past years. The results will help you decide how hot, cold, wet, or windy it might be!

Date:

Astronomy

Dec. 31, 1969 Rise Set
Actual Time Sun does not set Sun does not set
Civil Twilight Sun does not set Sun does not set
Nautical Twilight Sun does not set Sun does not set
Astronomical Twilight Sun does not set Sun does not set
Moon No Moon Rise No Moon Set
Length of Visible Light 24h 00m
Length of Day
24h 00m
Waning Crescent, 15% of the Moon is Illuminated
Aug 2
Waning Crescent
Aug 6
New
Aug 14
First Quarter
Aug 20
Full
Aug 28
Last Quarter

Hourly Weather History & Observations

Time (MDT) Temp. Windchill Dew Point Humidity Pressure Visibility Wind Dir Wind Speed Gust Speed Precip Events Conditions
12:00 AM 33 °F - 32 °F 93% 29.92 in - NNW 11.5 mph - -  
12:00 AM 32.5 °F 24.2 °F 31.8 °F 97% 29.92 in - NNW 10.4 mph - N/A   Unknown
1:00 AM 32.2 °F 23.8 °F 31.8 °F 99% 29.93 in - NNW 10.4 mph - N/A   Unknown
2:00 AM 32.2 °F 24.4 °F 31.8 °F 99% 29.94 in - NW 9.2 mph - N/A   Unknown
3:00 AM 32.2 °F 25.8 °F 31.8 °F 99% 29.95 in - NNW 6.9 mph - N/A   Unknown
4:00 AM 32.2 °F 25.8 °F 32.0 °F 99% 29.96 in - NW 6.9 mph - N/A   Unknown
5:00 AM 32.7 °F 25.7 °F 32.2 °F 98% 29.97 in - North 8.1 mph - 0.01 in   Unknown
6:00 AM 33 °F - 32 °F 93% 29.98 in - NNW 8.1 mph - -  
6:00 AM 33.4 °F 25.9 °F 31.8 °F 94% 29.98 in - North 9.2 mph - N/A   Unknown
7:00 AM 34.7 °F 26.9 °F 32.2 °F 91% 29.99 in - North 10.4 mph - N/A   Unknown
8:00 AM 34.5 °F 27.3 °F 31.6 °F 89% 30.00 in - North 9.2 mph - N/A   Unknown
9:00 AM 34.5 °F 26.2 °F 32.0 °F 90% 30.00 in - North 11.5 mph - N/A   Unknown
10:00 AM 36.0 °F 29.0 °F 33.4 °F 91% 30.01 in - North 9.2 mph - N/A   Unknown
11:00 AM 35.8 °F 28.3 °F 33.6 °F 92% 30.01 in - NNE 10.4 mph - N/A   Unknown
12:00 PM 36 °F - 33 °F 82% 30.02 in - NNE 11.5 mph - -  
12:00 PM 35.8 °F 27.8 °F 32.7 °F 89% 30.02 in - NNE 11.5 mph - N/A   Unknown
1:00 PM 36.0 °F 28.0 °F 33.1 °F 89% 30.03 in - North 11.5 mph - N/A   Unknown
2:00 PM 35.1 °F 25.9 °F 32.9 °F 92% 30.05 in - North 13.8 mph - N/A   Unknown
3:00 PM 35.4 °F 28.4 °F 31.5 °F 85% 30.06 in - NNE 9.2 mph - N/A   Unknown
4:00 PM 35.4 °F 27.8 °F 32.0 °F 87% 30.07 in - NNE 10.4 mph - N/A   Unknown
5:00 PM 35.6 °F 29.9 °F 31.5 °F 85% 30.07 in - NE 6.9 mph - N/A   Unknown
6:00 PM 35.2 °F 28.1 °F 31.1 °F 85% 30.08 in - NNE 9.2 mph - N/A   Unknown
7:00 PM 34.9 °F 28.3 °F 31.3 °F 87% 30.09 in - NNE 8.1 mph - N/A   Unknown
8:00 PM 34.7 °F 28.8 °F 30.9 °F 86% 30.09 in - North 6.9 mph - N/A   Unknown
9:00 PM 34.2 °F 29.0 °F 30.4 °F 86% 30.09 in - NNE 5.8 mph - N/A   Unknown
10:00 PM 33.8 °F 28.6 °F 30.0 °F 86% 30.09 in - NNE 5.8 mph - N/A   Unknown
11:00 PM 33.4 °F 29.1 °F 29.7 °F 86% 30.09 in - ENE 4.6 mph - N/A   Unknown